Location: Chamberlain Observatory
(39.0028°N, 90.1630°W)
Time: 12:02:34
(UTC-05:00)

Daily predictions for brighter satellites

Satellite Brightness Start Highest point End
(mag) Time Altitude Azimuth Time Altitude Azimuth Time Altitude Azimuth
SJ-6B 2.9 20:07:03 10° SSE 20:11:02 61° ENE 20:14:57 10° N
Meteor 2-3 Rocket 4.5 20:08:38 10° N 20:13:39 33° ENE 20:18:40 10° SE
Cosmos 1300 4.0 20:14:07 10° SSW 20:17:47 45° W 20:21:30 10° N
Cosmos 1939 Rocket 3.7 20:14:22 10° SE 20:17:48 31° ENE 20:21:17 10° N
NOSS 3-3 (A) 3.9 20:14:18 10° SSW 20:20:11 67° ESE 20:26:37 10° NE
NOSS 3-3 (C) 3.9 20:14:23 10° SSW 20:20:17 66° ESE 20:26:43 10° NE
Cosmos 2341 Rocket 4.4 20:14:43 10° SSE 20:20:37 42° E 20:26:30 10° NNE
NOSS 0 Rocket 4.4 20:16:00 10° S 20:21:37 39° ESE 20:27:18 10° NE
Cosmos 2360 Rocket 4.1 20:21:18 10° SW 20:26:22 34° WNW 20:31:28 10° N
Cosmos 1980 4.2 20:23:17 10° S 20:28:24 36° ESE 20:33:33 10° NE
Cosmos 1666 Rocket 3.6 20:28:03 10° N 20:32:33 70° E 20:36:57 10° SSE
Cosmos 1408 4.1 20:33:52 10° NNE 20:36:37 20° ENE 20:38:11 16° ESE
Cosmos 220 Rocket 4.5 20:33:16 10° N 20:37:24 42° ENE 20:40:43 14° SE
H-2A R/B 3.9 20:36:33 10° E 20:38:44 13° ENE 20:41:01 10° NE
Cosmos 2333 Rocket 2.1 20:33:28 10° SSW 20:39:06 74° ESE 20:44:45 10° NNE
ERS-2 2.2 20:36:12 10° SSE 20:39:52 83° WSW 20:43:33 10° NNW
Resurs 1-3 3.7 20:36:19 10° SSE 20:40:36 56° ENE 20:44:54 10° N
Cosmos 1151 Rocket 3.6 20:37:05 10° SSE 20:40:55 34° E 20:44:47 10° NNE
CZ-2D R/B 3.9 20:37:16 10° S 20:41:00 55° W 20:44:45 10° NNW
Cosmos 1455 2.2 20:37:30 10° S 20:41:16 62° E 20:45:05 10° NNE
Meteor 2-21 Rocket 4.4 20:36:08 10° S 20:42:15 77° E 20:48:26 10° N
Meteor 1-27 4.2 20:36:44 10° S 20:42:24 64° E 20:48:01 10° NNE
USA 186 0.7 20:40:40 13° SSE 20:42:32 82° E 20:44:49 10° N
Sich 1 3.1 20:38:16 10° N 20:42:33 81° W 20:46:48 10° S
Cosmos 1844 Rocket 2.9 20:38:14 10° NNW 20:43:53 73° WSW 20:49:29 10° SSE
COSMOS 2428 3.4 20:38:41 10° SW 20:44:19 59° WNW 20:49:59 10° NNE
SL-8 Rocket 4.4 20:40:07 10° SSE 20:46:00 43° E 20:51:53 10° NNE
Cosmos 1892 2.8 20:46:23 10° N 20:50:17 78° W 20:54:08 10° S
Envisat 3.7 20:45:31 10° S 20:50:29 55° W 20:55:29 10° NNW
Cosmos 1844 3.8 20:45:03 10° NNW 20:50:46 83° WSW 20:56:31 10° SSE
Cosmos 2251 Rocket 4.0 20:46:36 10° NNW 20:51:55 63° WSW 20:57:11 10° S
YAOGAN 6 2.6 20:49:00 10° S 20:52:34 83° WSW 20:56:14 10° NNW
Cosmos 2219 Rocket 2.5 20:47:59 10° SSW 20:53:38 72° WNW 20:59:17 10° NNE
Cosmos 2237 Rocket 2.2 20:50:11 10° S 20:55:40 58° ESE 21:01:11 10° NNE
SJ-11-01 4.2 20:53:30 12° SSE 20:57:48 71° ENE 21:02:29 10° N
SAR-Lupe-3 4.4 20:54:40 10° NNE 20:58:16 70° ESE 21:01:50 10° S
Cosmos 2056 Rocket 4.2 20:57:18 10° SSE 21:02:05 33° E 21:06:52 10° NE
Genesis I 3.3 20:58:57 10° NNW 21:03:02 67° ENE 21:05:02 28° SE
Cosmos 1633 Rocket 3.5 21:00:16 10° NNW 21:04:34 61° W 21:08:51 10° S
Cosmos 2278 Rocket 2.4 21:00:55 10° NNW 21:06:32 57° ENE 21:09:51 24° SE
Nadezhda 3 Rocket 4.5 21:00:50 10° NNW 21:07:04 64° W 21:13:19 10° S
Cosmos 2098 Rocket 3.6 21:07:13 24° SE 21:09:26 38° E 21:13:08 10° NNE
NOAA 11 4.2 21:05:46 16° SSE 21:10:08 73° ENE 21:15:38 10° N
CZ-3B R/B 4.2 21:11:20 10° N 21:11:54 15° NNE 21:11:54 15° NNE
Cosmos 1515 Rocket 3.5 21:10:02 10° S 21:14:28 89° WSW 21:18:58 10° N
Cosmos 405 4.5 21:15:11 10° NNE 21:17:29 22° ENE 21:17:29 22° ENE
Cosmos 1624 Rocket 4.1 21:14:02 10° S 21:19:00 49° ESE 21:24:00 10° NNE
Cosmos 2228 Rocket 3.1 21:15:11 10° S 21:19:34 79° W 21:23:59 10° N
Sakura Rocket 4.4 21:17:51 10° SW 21:21:06 20° S 21:21:08 20° S
ATLAS 2A CENTAUR R/B 4.3 21:06:14 10° SW 21:23:10 35° S 21:27:50 26° SE
Lacrosse 5 4.4 21:24:41 10° N 21:26:07 11° NNE 21:27:32 10° NNE
SPOT 5 4.3 21:28:34 19° ENE 21:28:34 19° ENE 21:31:41 10° NNE
Cosmos 1825 2.0 21:25:02 10° N 21:28:50 84° E 21:29:46 50° SSE
OAO 2 Rocket 4.4 21:27:58 10° W 21:32:30 31° SSW 21:33:39 28° S
Spot 2 Rocket 4.0 21:29:14 15° S 21:33:19 57° W 21:38:20 10° NNW
ATLAS 2AS CENTAUR R/B 3.1 21:27:31 10° NW 21:35:18 69° WSW 21:39:43 26° SSE
ATLAS CENTAUR R/B 3.4 21:32:46 10° WSW 21:35:54 26° NW 21:39:09 10° N
SL-8 R/B 4.2 21:34:07 10° WSW 21:38:50 58° NNW 21:43:31 10° NE
GEOS 3 Rocket 3.8 21:37:47 10° NE 21:42:57 48° ESE 21:43:44 44° SSE
CSL-04 DEB 4.5 21:42:36 59° SE 21:43:22 79° ENE 21:47:46 10° N
Resurs 01 Rocket 3.4 21:39:52 10° SSW 21:43:44 29° W 21:47:37 10° NW
SL-16 R/B 2.1 21:43:11 30° S 21:45:51 60° ESE 21:51:25 10° NNE
Cosmos 2344 3.7 21:42:23 10° S 21:49:37 46° ESE 21:57:09 10° NE
ARGOS 3.0 21:48:17 47° SSE 21:49:51 80° ENE 21:55:14 10° N
MetOp-B 4.0 21:51:06 52° SE 21:52:24 74° ENE 21:57:44 10° N
Cosmos 1727 Rocket 3.8 21:49:54 10° N 21:56:07 84° E 21:58:14 44° SSE
SL-08 RB Rocket 3.5 21:56:34 72° E 21:56:38 72° ENE 22:01:07 10° N
Cosmos 1869 4.3 21:55:17 26° SW 21:57:10 46° W 22:01:04 10° N
Cosmos 1821 Rocket 4.4 21:57:37 41° E 21:57:43 41° E 22:03:33 10° NNE
DMSP B5D2-2 4.4 22:00:03 10° NNE 22:04:25 48° ENE 22:04:25 48° ENE
Meteor 2-10 Rocket 4.0 22:01:53 21° SSW 22:05:44 68° W 22:11:34 10° N
NOSS 3-4 (A) 3.9 21:58:43 10° NNW 22:05:48 69° NE 22:07:54 49° ESE
NOSS 3-4 (C) 3.9 21:58:50 10° NNW 22:05:54 68° NE 22:07:59 49° ESE
SPOT 1/Viking Rocket 3.9 22:09:39 49° ENE 22:09:39 49° ENE 22:14:27 10° N
ERS-1 Rocket 2.8 22:10:08 80° SSE 22:10:25 88° ENE 22:15:28 10° NNW
USA 81 4.0 22:07:00 10° N 22:12:17 79° W 22:13:03 65° SSW
Cosmos 614 Rocket 4.4 22:08:17 10° N 22:12:58 49° NE 22:12:58 49° NE
Cosmos 407 Rocket 3.3 22:09:10 10° NNW 22:14:18 82° WSW 22:14:31 79° SSW
USA 267 3.1 22:08:43 10° NE 22:15:13 64° SE 22:21:41 10° SW
H-2A R/B 2.0 22:17:10 68° SW 22:17:34 72° WSW 22:22:34 10° NNW
Cosmos 2297 3.5 22:13:19 10° NNW 22:19:01 88° ENE 22:19:22 80° SE
Cosmos 2369 Rocket 3.8 22:21:10 10° N 22:25:18 21° NE 22:25:18 21° NE
Helios 1B rocket 4.2 22:23:19 10° NNE 22:25:09 26° NNE 22:25:09 26° NNE
Cosmos 1707 Rocket 4.5 22:30:05 45° NNW 22:30:05 45° NNW 22:33:13 10° N
Cosmos 676 Rocket 4.1 22:29:16 10° NNW 22:33:55 70° NNW 22:33:55 70° NNW
CZ-4C R/B 3.7 22:44:41 26° NE 22:44:41 26° NE 22:47:12 10° NE
Helios 1A 4.5 22:45:20 35° NW 22:45:20 35° NW 22:48:04 10° NNW
Cosmos 1452 Rocket 4.0 22:45:53 56° N 22:45:53 56° N 22:50:06 10° NNE
Terra 3.0 22:48:17 36° NNE 22:48:17 36° NNE 22:51:13 10° N
Cosmos 2278 Rocket 4.2 22:46:19 10° WNW 22:50:05 18° W 22:51:44 16° WSW
ATLAS 5 CENTAUR R/B 3.7 22:48:57 10° NNW 22:54:02 28° NE 22:54:08 28° NE
SPOT 5 4.4 23:07:48 30° WNW 23:07:48 30° WNW 23:10:33 10° NNW
Lacrosse 5 3.6 23:06:17 10° NNW 23:09:43 27° NNE 23:09:43 27° NNE
Cosmos 1934 Rocket 4.4 23:17:32 58° NW 23:17:32 58° NW 23:22:44 10° N
SL-16 R/B 4.5 23:26:17 10° W 23:30:23 20° NW 23:34:30 10° N
Cosmos 1943 Rocket 3.5 23:32:54 10° NNW 23:36:08 34° N 23:36:08 34° N
